Location: Bouff�mont
(49.0438°N, 2.2980°E)
Time: 17:40:43
(UTC+00:00)

Daily predictions for brighter satellites

Satellite Brightness Start Highest point End
(mag) Time Altitude Azimuth Time Altitude Azimuth Time Altitude Azimuth
ATLAS 3B R/B 2.6 20:31:56 10° SSW 20:38:28 76° SE 20:45:16 10° NE
Cosmos 389 Rocket 4.0 20:39:14 10° NNE 20:42:02 22° ENE 20:44:49 10° ESE
Cosmos 1459 Rocket 4.2 20:38:04 10° NNW 20:44:07 75° W 20:50:12 10° S
SPOT 5 3.5 20:44:00 10° SE 20:48:41 44° ENE 20:53:08 10° N
Landsat 7 4.3 20:44:19 10° S 20:49:01 62° W 20:53:45 10° NNW
Cosmos 1486 Rocket 4.2 20:46:50 10° NNW 20:52:03 66° ENE 20:57:13 10° SSE
SPOT 3 Rocket 4.1 20:48:24 10° S 20:53:31 60° WSW 20:58:41 10° NNW
SJ 16-02 3.8 20:55:17 10° NNE 20:56:33 11° NE 20:57:48 10° ENE
ATLAS 2A CENTAUR R/B 4.5 20:50:04 10° SW 20:57:13 14° SSW 21:01:21 10° SSE
Cosmos 1802 Rocket 4.3 20:53:36 10° NNW 20:59:53 72° W 21:06:14 10° S
Cosmos 1867 3.8 20:55:22 10° NW 21:00:51 70° SW 21:06:16 10° SSE
Cosmos 2219 Rocket 2.3 20:55:18 10° SSW 21:00:59 90° ESE 21:06:42 10° NNE
Resurs 01 Rocket 2.9 20:58:21 10° SSW 21:02:27 37° W 21:06:34 10° NNW
Cosmos 1544 Rocket 4.5 21:00:15 10° NNW 21:04:32 48° W 21:08:47 10° SSW
FALCON 9 DEB 3.7 21:02:25 10° W 21:05:30 55° NNW 21:08:35 10° ENE
Cosmos 405 3.6 21:04:09 10° NNW 21:07:31 51° W 21:10:52 10° S
ERS-1 Rocket 3.1 21:03:42 10° SSE 21:08:41 67° ENE 21:13:43 10° N
Cosmos 1606 Rocket 4.3 21:04:46 10° N 21:09:01 40° ENE 21:12:47 12° SE
X-37B 1.8 21:09:26 10° SW 21:12:02 23° SSE 21:14:39 10° ESE
FALCON 9 DEB 4.1 21:11:25 10° W 21:14:25 45° NNW 21:17:25 10° ENE
SL-23 DEB 4.4 21:13:43 10° WNW 21:17:33 84° NNE 21:24:00 10° ESE
Cosmos 1346 Rocket 3.1 21:14:24 10° S 21:18:15 49° E 21:22:10 10° NNE
Geosat 4.2 21:14:16 12° SE 21:18:55 66° NE 21:23:55 10° NNW
Cosmos 2333 Rocket 2.9 21:13:36 10° SW 21:19:17 61° WNW 21:24:58 10° NNE
Cosmos 1455 3.4 21:16:32 10° N 21:19:56 30° ENE 21:22:38 14° SE
Cosmos 1025 Rocket 4.5 21:18:26 10° SW 21:22:31 38° WNW 21:26:36 10° N
Cosmos 2228 3.1 21:18:53 10° N 21:23:17 67° ENE 21:27:02 14° SSE
H-2A R/B 4.3 21:20:11 10° NNE 21:23:53 32° E 21:26:46 15° SSE
CZ-2C R/B 4.4 21:19:16 10° N 21:24:00 61° WNW 21:28:40 10° SSW
Spot 2 Rocket 3.8 21:19:43 10° S 21:24:44 64° WSW 21:29:50 10° NNW
FALCON 9 DEB 4.2 21:23:33 10° W 21:26:32 42° N 21:29:32 10° ENE
FALCON 9 DEB 4.1 21:25:04 10° W 21:28:05 44° NNW 21:31:07 10° ENE
Cosmos 2237 Rocket 2.4 21:22:56 10° S 21:28:19 49° ESE 21:33:43 10° NE
Cosmos 2360 Rocket 4.4 21:23:37 10° WSW 21:28:31 30° NW 21:33:27 10° NNE
Cosmos 1340 4.1 21:25:40 10° SW 21:29:11 38° WNW 21:32:44 10° N
SL-16 R/B 3.7 21:26:40 13° SE 21:29:37 19° E 21:33:31 10° NE
SL-4 R/B 1.9 21:26:44 10° WSW 21:30:58 75° SSE 21:34:52 10° ENE
Cosmos 2233 Rocket 4.1 21:26:10 10° N 21:32:23 83° W 21:38:24 11° S
Cosmos 1300 3.9 21:29:38 10° NNW 21:33:12 39° W 21:36:46 10° SSW
Cosmos 2369 Rocket 4.2 21:29:07 10° N 21:33:18 20° NE 21:37:28 10° E
Cosmos 1607 4.0 21:26:54 10° NW 21:33:21 79° SW 21:38:39 15° SSE
ARIANE 5 R/B 3.3 21:33:37 10° S 21:37:58 51° W 21:42:24 10° NNW
Meteor 2-10 Rocket 3.6 21:38:19 10° NNW 21:43:21 72° W 21:47:42 14° S
Lacrosse 5 rocket 3.4 21:41:08 10° WNW 21:44:14 26° NNW 21:47:19 10° NE
Meteor 2-5 Rocket 4.2 21:39:38 10° SSW 21:45:08 60° WNW 21:50:46 10° N
Cosmos 1447 Rocket 4.5 21:39:18 10° S 21:45:30 82° E 21:51:41 10° N
USA 267 4.3 21:41:30 10° ENE 21:47:41 46° N 21:53:51 10° WNW
FALCON 9 DEB 4.3 21:48:58 10° WNW 21:52:15 43° N 21:55:33 10° E
Cosmos 1503 Rocket 4.2 21:47:35 10° NNW 21:52:56 69° WSW 21:57:02 17° S
ATLAS CENTAUR R/B 3.6 21:51:59 13° S 21:55:50 41° ESE 22:05:49 10° NE
Terra 2.1 21:55:24 16° S 21:59:13 62° WSW 22:03:57 10° NNW
Meteor 1-24 Rocket 4.3 21:55:17 10° SSW 22:00:35 55° WNW 22:06:08 10° N
Cosmos 2278 Rocket 2.8 21:56:00 10° NW 22:01:27 48° WSW 22:05:45 16° S
Cosmos 1943 Rocket 2.8 22:03:05 10° NNW 22:08:26 47° NE 22:12:41 16° SE
Cosmos 2297 4.1 22:03:13 10° NNW 22:08:48 58° ENE 22:12:58 18° SE
Cosmos 724 4.4 22:06:10 10° NW 22:12:23 90° NW 22:16:45 20° SE
COSMOS 2428 4.2 22:07:11 10° WSW 22:12:32 38° NW 22:17:54 10° NNE
Cosmos 389 Rocket 4.2 22:13:45 10° NW 22:16:38 25° W 22:19:05 13° SW
Cosmos 192 4.3 22:11:59 11° SSW 22:16:46 90° W 22:21:43 10° NNE
Lacrosse 4 Rocket 4.2 22:16:37 10° N 22:18:04 11° NNE 22:19:30 10° NE
Cosmos 1184 Rocket 2.8 22:20:41 24° SSW 22:22:29 74° WNW 22:25:45 10° N
SPOT 5 4.5 22:22:43 10° SSW 22:26:54 27° W 22:30:55 10° NW
Cosmos 1464 Rocket 4.1 22:21:46 10° N 22:28:11 84° W 22:32:40 21° S
Cosmos 1812 Rocket 4.5 22:24:17 10° N 22:28:23 37° ENE 22:30:41 22° SE
ATLAS 3B R/B 4.3 22:23:41 10° W 22:29:46 37° NNW 22:36:06 10° NE
Cosmos 1777 Rocket 4.1 22:27:30 10° NNW 22:32:48 74° WSW 22:35:58 25° S
Cosmos 1441 Rocket 3.1 22:31:15 26° S 22:33:19 90° ESE 22:37:07 10° NNE
USA 229 DEB 4.2 22:30:08 22° SSE 22:33:27 36° ESE 22:39:29 10° NE
USA 229 4.2 22:30:18 22° SSE 22:33:33 35° ESE 22:39:35 10° NE
COBE Rocket 4.3 22:32:01 23° SE 22:34:58 54° ENE 22:39:41 10° N
SJ 16-02 1.5 22:31:40 10° NNW 22:36:03 66° ENE 22:38:21 27° SE
NOSS 3-1 (C) 3.4 22:35:28 19° SSW 22:39:11 54° ESE 22:45:16 10° NE
Cosmos 2058 Rocket 3.6 22:36:36 10° NNW 22:40:54 50° W 22:43:26 22° SSW
FALCON 9 DEB 4.4 22:38:35 10° WNW 22:41:33 38° N 22:44:31 10° ENE
GEOS 3 Rocket 4.1 22:40:04 14° ESE 22:44:42 59° NE 22:49:57 10° NW
Okean 1-7 Rocket 3.6 22:42:02 23° SSW 22:44:45 78° W 22:49:12 10° N
Cosmos 1816 Rocket 4.5 22:43:18 23° S 22:47:13 71° E 22:53:19 10° NNE
X-37B 1.5 22:45:16 10° WSW 22:47:30 33° SW 22:47:30 33° SW
FALCON 9 DEB 4.2 22:47:26 10° WNW 22:50:23 41° N 22:53:20 10° E
Aureole 3 4.3 22:46:26 10° N 22:50:32 47° ENE 22:53:15 24° SE
NOSS 2-3 (E) 3.8 22:49:23 30° S 22:51:07 49° ESE 22:55:45 10° NE
NOSS 3-1 (A) 3.7 22:50:45 26° SSE 22:53:11 40° ESE 22:58:55 10° NE
Meteor 1-21 Rocket 4.5 22:49:05 17° SSW 22:53:28 69° WNW 22:59:17 10° N
USA 215 3.7 22:49:13 10° ENE 22:55:15 38° SE 22:58:45 23° S
Cosmos 1455 4.0 22:52:20 10° NW 22:55:22 23° W 22:57:31 15° SW
FALCON 9 DEB 4.1 22:59:32 10° WNW 23:02:32 43° N 23:05:32 10° E
FALCON 9 DEB 4.2 23:01:09 10° WNW 23:04:09 41° N 23:07:09 10° E
Cosmos 1703 4.2 23:02:32 20° SW 23:04:56 43° WNW 23:08:46 10° N
CREW DRAGON DEMO-1 DEB 3.8 23:06:10 26° ENE 23:06:10 26° ENE 23:07:24 10° ENE
Cosmos 1869 4.4 23:03:09 10° N 23:06:58 36° ENE 23:08:45 24° ESE
Cosmos 2034 Rocket 4.2 23:00:55 10° NNW 23:06:59 62° W 23:10:49 23° SSW
Meteor 1-4 Rocket 3.1 23:04:10 10° NNW 23:07:29 44° W 23:08:33 32° SW
Cosmos 1898 Rocket 4.0 23:04:57 10° NNW 23:10:04 52° ENE 23:13:24 21° SE
SL-4 R/B 2.5 23:06:42 10° W 23:10:41 58° N 23:14:23 10° ENE
Spot 4 4.1 23:09:05 28° S 23:11:26 58° W 23:16:10 10° NNW
Cosmos 2237 Rocket 3.7 23:07:29 10° WSW 23:12:34 34° NW 23:17:42 10° NNE
ATLAS 5 CENTAUR R/B 3.7 23:13:04 10° ESE 23:13:04 10° ESE 23:13:28 10° E
SL-16 R/B 2.3 23:08:30 16° SSW 23:13:05 78° WNW 23:18:47 10° NNE
GP-B 3.5 23:08:49 10° N 23:13:11 53° E 23:15:02 31° SSE
Cosmos 405 Rocket 4.2 23:16:45 20° ESE 23:17:35 22° E 23:20:28 10° NE
Cosmos 2369 Rocket 2.2 23:12:31 10° NNW 23:18:17 80° ENE 23:21:43 25° SSE
Cosmos 1626 Rocket 4.1 23:18:01 24° SW 23:20:30 54° WNW 23:24:51 10° N
Cosmos-2242 3.1 23:16:48 10° N 23:21:14 76° E 23:23:04 34° SSE
USA 308 4.1 23:22:31 25° SE 23:22:31 25° SE 23:25:35 10° E
ALOS 2 2.6 23:21:22 34° S 23:23:14 73° WSW 23:27:38 10° NNW
Lacrosse 5 rocket 3.4 23:21:08 10° NW 23:24:09 25° N 23:27:11 10° ENE
NOSS 8 (E) 4.0 23:25:24 49° SSW 23:26:08 84° SE 23:29:07 10° NE
FALCON 9 DEB 2.9 23:25:54 10° WNW 23:29:19 76° SSW 23:30:16 44° SE
USA 267 3.5 23:23:45 10° ESE 23:30:16 74° NNE 23:36:48 10° NW
Cosmos 1602 Rocket 3.9 23:28:09 27° SSW 23:30:26 60° WNW 23:34:53 10° N
Cosmos 468 Rocket 4.2 23:29:10 31° S 23:31:27 56° ESE 23:36:36 10° NNE
NOSS 2-3 (D) 3.6 23:29:39 23° SW 23:32:16 85° NW 23:37:13 10° NE
USA 305 3.6 23:36:40 34° SE 23:36:52 34° SE 23:40:44 10° ENE
Cosmos 1763 Rocket 3.5 23:35:39 32° S 23:37:55 62° ESE 23:43:01 10° NNE
Cosmos 1758 Rocket 3.6 23:37:04 33° SSW 23:38:59 79° W 23:43:23 10° N
Cosmos 2263 4.1 23:37:49 10° NNW 23:43:33 90° SW 23:46:47 27° SSE
Tsikada Rocket 4.4 23:39:32 21° SSW 23:43:40 57° WNW 23:49:44 10° N
Cosmos 1408 2.7 23:42:43 42° SSE 23:43:41 60° E 23:47:21 10° NNE
NOSS 2-3 (C) 4.0 23:45:40 16° WSW 23:48:58 63° NW 23:54:01 10° NE
Cosmos 2221 3.6 23:46:56 10° N 23:50:57 37° ENE 23:53:10 22° SE
CZ-2D R/B 4.5 23:50:55 10° ENE 23:51:58 11° E 23:53:01 10° E
Cosmos 1943 Rocket 3.2 23:47:09 10° NW 23:51:59 32° WSW 23:54:12 24° SW
